Time,TemperatureF,DewpointF,PressureIn,WindDirection,WindDirectionDegrees,WindSpeedMPH,WindSpeedGustMPH,Humidity,HourlyPrecipIn,Conditions,Clouds,dailyrainin,SolarRadiationWatts/m^2,SoftwareType,DateUTC
2013-01-26 00:00:00,59.6,56.0,29.97,SE,146,3.0,6.0,88,0.00,CLR,SCT,0.00,0.0,WeatherDisplay:10.37,2013-01-26 10:00:00,
2013-01-26 00:10:00,60.2,57.2,29.97,SSE,160,3.0,6.0,90,0.00,CLR,SCT,0.00,0.0,WeatherDisplay:10.37,2013-01-26 10:10:00,
2013-01-26 00:20:00,60.7,57.7,29.97,SSE,166,2.0,5.0,90,0.00,CLR,SCT,0.00,0.0,WeatherDisplay:10.37,2013-01-26 10:20:00,
2013-01-26 00:30:00,60.9,58.0,29.96,SSE,154,1.0,6.0,90,0.00,CLR,SCT,0.00,0.0,WeatherDisplay:10.37,2013-01-26 10:30:00,
2013-01-26 00:40:00,61.3,58.0,29.97,SSE,160,2.0,6.0,89,0.00,CLR,SCT,0.00,0.0,WeatherDisplay:10.37,2013-01-26 10:40:00,
2013-01-26 00:50:00,61.5,57.9,29.96,SSE,159,3.0,7.0,88,0.00,CLR,SCT,0.00,0.0,WeatherDisplay:10.37,2013-01-26 10:50:00,
2013-01-26 01:00:00,61.7,57.8,29.96,SSE,160,3.0,6.0,87,0.00,CLR,SCT,0.00,0.0,WeatherDisplay:10.37,2013-01-26 11:00:00,
2013-01-26 01:10:00,61.7,57.5,29.95,South,169,2.0,6.0,86,0.00,CLR,SCT,0.00,0.0,WeatherDisplay:10.37,2013-01-26 11:10:00,
2013-01-26 01:20:00,61.6,57.7,29.95,South,169,1.0,4.0,87,0.00,CLR,SCT,0.00,0.0,WeatherDisplay:10.37,2013-01-26 11:20:00,
2013-01-26 01:30:00,61.4,57.5,29.95,South,170,3.0,6.0,87,0.00,CLR,SCT,0.00,0.0,WeatherDisplay:10.37,2013-01-26 11:30:00,
2013-01-26 01:40:00,61.2,57.3,29.94,South,171,2.0,5.0,87,0.00,SCT,SCT,0.00,0.0,WeatherDisplay:10.37,2013-01-26 11:40:00,
2013-01-26 01:50:00,61.0,57.1,29.94,South,170,2.0,4.0,87,0.00,SCT,SCT,0.00,0.0,WeatherDisplay:10.37,2013-01-26 11:50:00,
2013-01-26 02:00:00,60.8,56.9,29.94,SSE,167,3.0,5.0,87,0.00,SCT,SCT,0.00,0.0,WeatherDisplay:10.37,2013-01-26 12:00:00,
2013-01-26 02:10:00,60.7,56.8,29.94,SSE,161,3.0,5.0,87,0.00,CLR,SCT,0.00,0.0,WeatherDisplay:10.37,2013-01-26 12:10:00,
2013-01-26 02:20:00,60.9,56.6,29.93,SSE,158,1.0,4.0,86,0.00,CLR,SCT,0.00,0.0,WeatherDisplay:10.37,2013-01-26 12:20:00,
2013-01-26 02:30:00,60.7,55.8,29.93,SE,124,2.0,6.0,84,0.00,CLR,SCT,0.00,0.0,WeatherDisplay:10.37,2013-01-26 12:30:00,
2013-01-26 02:40:00,60.8,56.3,29.93,ESE,111,2.0,5.0,85,0.00,CLR,SCT,0.00,0.0,WeatherDisplay:10.37,2013-01-26 12:40:00,
2013-01-26 02:50:00,60.7,56.2,29.93,East,100,1.0,3.0,85,0.00,CLR,SCT,0.00,0.0,WeatherDisplay:10.37,2013-01-26 12:50:00,
2013-01-26 03:00:00,60.3,55.1,29.92,East,101,0.0,3.0,83,0.00,CLR,SCT,0.00,0.0,WeatherDisplay:10.37,2013-01-26 13:00:00,
2013-01-26 03:10:00,59.8,54.3,29.92,ESE,102,1.0,3.0,82,0.00,CLR,SCT,0.00,0.0,WeatherDisplay:10.37,2013-01-26 13:10:00,
2013-01-26 03:20:00,59.3,53.8,29.92,ESE,102,1.0,3.0,82,0.00,CLR,SCT,0.00,0.0,WeatherDisplay:10.37,2013-01-26 13:20:00,
2013-01-26 03:30:00,58.8,53.6,29.93,ESE,102,1.0,3.0,83,0.00,CLR,SCT,0.00,0.0,WeatherDisplay:10.37,2013-01-26 13:30:00,
2013-01-26 03:40:00,58.5,53.7,29.92,ESE,109,2.0,4.0,84,0.00,BKN,SCT,0.00,0.0,WeatherDisplay:10.37,2013-01-26 13:40:00,
2013-01-26 03:50:00,58.3,53.8,29.93,ESE,104,2.0,4.0,85,0.00,BKN,SCT,0.00,0.0,WeatherDisplay:10.37,2013-01-26 13:50:00,
2013-01-26 04:00:00,58.0,53.8,29.93,East,101,0.0,3.0,86,0.00,BKN,SCT,0.00,0.0,WeatherDisplay:10.37,2013-01-26 14:00:00,
2013-01-26 04:10:00,57.7,53.5,29.93,ESE,102,0.0,4.0,86,0.00,OVC,SCT,0.00,0.0,WeatherDisplay:10.37,2013-01-26 14:10:00,
2013-01-26 04:20:00,57.6,53.8,29.93,ESE,103,0.0,4.0,87,0.00,OVC,SCT,0.00,0.0,WeatherDisplay:10.37,2013-01-26 14:20:00,
2013-01-26 04:30:00,57.7,54.2,29.93,ESE,103,0.0,4.0,88,0.00,OVC,SCT,0.00,0.0,WeatherDisplay:10.37,2013-01-26 14:30:00,
2013-01-26 04:40:00,57.7,54.2,29.92,ESE,105,0.0,3.0,88,0.00,OVC,SCT,0.00,0.0,WeatherDisplay:10.37,2013-01-26 14:40:00,
2013-01-26 04:50:00,57.6,54.1,29.93,ESE,106,1.0,3.0,88,0.00,SCT,SCT,0.00,0.0,WeatherDisplay:10.37,2013-01-26 14:50:00,
2013-01-26 05:00:00,57.5,54.0,29.93,ESE,107,1.0,3.0,88,0.00,SCT,SCT,0.00,0.0,WeatherDisplay:10.37,2013-01-26 15:00:00,
2013-01-26 05:10:00,57.4,53.9,29.93,ESE,115,2.0,4.0,88,0.00,CLR,SCT,0.00,0.0,WeatherDisplay:10.37,2013-01-26 15:10:00,
2013-01-26 05:20:00,57.3,54.1,29.93,ESE,110,3.0,5.0,89,0.00,CLR,SCT,0.00,0.0,WeatherDisplay:10.37,2013-01-26 15:20:00,
2013-01-26 05:30:00,57.5,54.6,29.93,ESE,102,1.0,7.0,90,0.00,CLR,SCT,0.00,0.0,WeatherDisplay:10.37,2013-01-26 15:30:00,
2013-01-26 05:40:00,57.5,54.0,29.93,ESE,113,2.0,5.0,88,0.00,CLR,SCT,0.00,0.0,WeatherDisplay:10.37,2013-01-26 15:40:00,
2013-01-26 05:50:00,57.2,53.1,29.93,ESE,120,1.0,4.0,86,0.00,CLR,SCT,0.00,0.0,WeatherDisplay:10.37,2013-01-26 15:50:00,
2013-01-26 06:00:00,56.7,52.2,29.93,ESE,120,1.0,3.0,85,0.00,CLR,SCT,0.00,0.0,WeatherDisplay:10.37,2013-01-26 16:00:00,
2013-01-26 06:10:00,56.3,52.2,29.93,ESE,120,0.0,1.0,86,0.00,CLR,SCT,0.00,0.0,WeatherDisplay:10.37,2013-01-26 16:10:00,
2013-01-26 06:20:00,56.2,52.4,29.94,ESE,120,1.0,3.0,87,0.00,CLR,SCT,0.00,0.0,WeatherDisplay:10.37,2013-01-26 16:20:00,
2013-01-26 06:30:00,56.4,52.6,29.94,ESE,120,0.0,2.0,87,0.00,CLR,SCT,0.00,0.0,WeatherDisplay:10.37,2013-01-26 16:30:00,
2013-01-26 06:40:00,56.5,52.7,29.94,ESE,120,1.0,3.0,87,0.00,CLR,SCT,0.00,0.0,WeatherDisplay:10.37,2013-01-26 16:40:00,
2013-01-26 06:50:00,56.6,52.5,29.95,ESE,120,0.0,2.0,86,0.00,CLR,SCT,0.00,0.0,WeatherDisplay:10.37,2013-01-26 16:50:00,
2013-01-26 07:00:00,56.4,52.3,29.95,ESE,120,0.0,2.0,86,0.00,CLR,SCT,0.00,0.0,WeatherDisplay:10.37,2013-01-26 17:00:00,
2013-01-26 07:10:00,56.3,52.2,29.95,ESE,111,1.0,4.0,86,0.00,CLR,SCT,0.00,5.4,WeatherDisplay:10.37,2013-01-26 17:10:00,
2013-01-26 07:20:00,56.3,52.1,29.95,ESE,108,0.0,2.0,86,0.00,CLR,SCT,0.00,6.8,WeatherDisplay:10.37,2013-01-26 17:20:00,
2013-01-26 07:30:00,56.2,52.1,29.95,ESE,108,1.0,3.0,86,0.00,CLR,SCT,0.00,10.0,WeatherDisplay:10.37,2013-01-26 17:30:00,
2013-01-26 07:40:00,56.1,52.3,29.96,ESE,108,1.0,3.0,87,0.00,CLR,SCT,0.00,10.9,WeatherDisplay:10.37,2013-01-26 17:40:00,
2013-01-26 07:50:00,56.4,52.9,29.96,ESE,108,1.0,3.0,88,0.00,CLR,SCT,0.00,16.8,WeatherDisplay:10.37,2013-01-26 17:50:00,
2013-01-26 08:00:00,56.7,53.2,29.96,ESE,108,1.0,3.0,88,0.00,CLR,SCT,0.00,24.5,WeatherDisplay:10.37,2013-01-26 18:00:00,
2013-01-26 08:10:00,57.2,53.7,29.96,ESE,108,0.0,3.0,88,0.00,CLR,SCT,0.00,27.6,WeatherDisplay:10.37,2013-01-26 18:10:00,
2013-01-26 08:20:00,58.1,54.8,29.97,ESE,108,0.0,2.0,89,0.00,CLR,SCT,0.00,35.3,WeatherDisplay:10.37,2013-01-26 18:20:00,
2013-01-26 08:30:00,59.9,56.7,29.97,ESE,108,0.0,3.0,89,0.00,CLR,SCT,0.00,43.0,WeatherDisplay:10.37,2013-01-26 18:30:00,
2013-01-26 08:40:00,62.7,58.1,29.97,ESE,108,0.0,2.0,85,0.00,CLR,SCT,0.00,246.4,WeatherDisplay:10.37,2013-01-26 18:40:00,
2013-01-26 08:50:00,66.5,59.8,29.98,ESE,108,1.0,2.0,79,0.00,CLR,SCT,0.00,257.8,WeatherDisplay:10.37,2013-01-26 18:50:00,
2013-01-26 09:00:00,69.1,60.1,29.98,ESE,117,2.0,6.0,73,0.00,CLR,SCT,0.00,270.0,WeatherDisplay:10.37,2013-01-26 19:00:00,
2013-01-26 09:10:00,70.5,59.8,29.98,ESE,118,1.0,4.0,69,0.00,CLR,SCT,0.00,280.9,WeatherDisplay:10.37,2013-01-26 19:10:00,
2013-01-26 09:20:00,71.7,59.8,29.98,ESE,118,1.0,4.0,66,0.00,CLR,SCT,0.00,290.8,WeatherDisplay:10.37,2013-01-26 19:20:00,
2013-01-26 09:30:00,72.1,59.2,29.98,SE,125,0.0,4.0,64,0.00,CLR,SCT,0.00,297.6,WeatherDisplay:10.37,2013-01-26 19:30:00,
2013-01-26 09:40:00,72.7,58.0,29.98,SE,127,0.0,4.0,60,0.00,CLR,SCT,0.00,303.1,WeatherDisplay:10.37,2013-01-26 19:40:00,
2013-01-26 09:50:00,73.9,57.7,29.98,SE,127,0.0,0.0,57,0.00,CLR,SCT,0.00,310.8,WeatherDisplay:10.37,2013-01-26 19:50:00,
2013-01-26 10:00:00,74.4,59.1,29.98,ESE,106,2.0,5.0,59,0.00,CLR,SCT,0.00,316.2,WeatherDisplay:10.37,2013-01-26 20:00:00,
2013-01-26 10:10:00,74.9,58.6,29.98,ENE,74,0.0,5.0,57,0.00,FEW,SCT,0.00,323.0,WeatherDisplay:10.37,2013-01-26 20:10:00,
2013-01-26 10:20:00,75.6,59.8,29.98,East,80,1.0,4.0,58,0.00,FEW,SCT,0.00,331.6,WeatherDisplay:10.37,2013-01-26 20:20:00,
2013-01-26 10:30:00,76.5,59.6,29.97,East,91,1.0,5.0,56,0.00,FEW,SCT,0.00,339.3,WeatherDisplay:10.37,2013-01-26 20:30:00,
2013-01-26 10:40:00,76.4,59.5,29.97,South,186,2.0,5.0,56,0.00,FEW,SCT,0.00,356.1,WeatherDisplay:10.37,2013-01-26 20:40:00,
2013-01-26 10:50:00,76.4,59.5,29.97,SSW,204,2.0,5.0,56,0.00,FEW,SCT,0.00,373.7,WeatherDisplay:10.37,2013-01-26 20:50:00,
2013-01-26 11:00:00,76.8,60.9,29.96,NE,53,1.0,9.0,58,0.00,FEW,SCT,0.00,110.5,WeatherDisplay:10.37,2013-01-26 21:00:00,
2013-01-26 11:10:00,75.7,60.8,29.97,ENE,59,3.0,9.0,60,0.00,FEW,SCT,0.00,97.4,WeatherDisplay:10.37,2013-01-26 21:10:00,
2013-01-26 11:20:00,75.8,61.9,29.96,ENE,68,3.0,8.0,62,0.00,FEW,SCT,0.00,284.0,WeatherDisplay:10.37,2013-01-26 21:20:00,
2013-01-26 11:30:00,76.5,63.0,29.95,ENE,78,1.0,8.0,63,0.00,FEW,SCT,0.00,162.6,WeatherDisplay:10.37,2013-01-26 21:30:00,
2013-01-26 11:40:00,75.8,61.9,29.95,ESE,108,6.0,12.0,62,0.00,FEW,SCT,0.00,188.0,WeatherDisplay:10.37,2013-01-26 21:40:00,
2013-01-26 11:50:00,75.9,62.9,29.95,East,82,2.0,12.0,64,0.00,FEW,SCT,0.00,132.7,WeatherDisplay:10.37,2013-01-26 21:50:00,
2013-01-26 12:00:00,76.0,60.6,29.94,ESE,104,7.0,12.0,59,0.00,FEW,SCT,0.00,416.8,WeatherDisplay:10.37,2013-01-26 22:00:00,
2013-01-26 12:10:00,76.4,59.6,29.94,SSW,208,2.0,7.0,56,0.00,SCT,SCT,0.00,150.4,WeatherDisplay:10.37,2013-01-26 22:10:00,
2013-01-26 12:20:00,77.3,60.8,29.93,SW,215,5.0,7.0,57,0.00,SCT,SCT,0.00,346.1,WeatherDisplay:10.37,2013-01-26 22:20:00,
2013-01-26 12:30:00,78.2,60.7,29.92,South,182,3.0,7.0,55,0.00,SCT,SCT,0.00,264.1,WeatherDisplay:10.37,2013-01-26 22:30:00,
2013-01-26 12:40:00,78.4,61.4,29.92,East,91,2.0,9.0,56,0.00,SCT,SCT,0.00,196.6,WeatherDisplay:10.37,2013-01-26 22:40:00,
2013-01-26 12:50:00,78.2,62.7,29.91,ESE,108,3.0,10.0,59,0.00,SCT,SCT,0.00,234.2,WeatherDisplay:10.37,2013-01-26 22:50:00,
2013-01-26 13:00:00,77.6,62.6,29.91,ENE,65,2.0,13.0,60,0.00,SCT,SCT,0.00,396.8,WeatherDisplay:10.37,2013-01-26 23:00:00,
2013-01-26 13:10:00,77.0,63.9,29.90,NNE,19,6.0,10.0,64,0.00,SCT,SCT,0.00,398.2,WeatherDisplay:10.37,2013-01-26 23:10:00,
2013-01-26 13:20:00,77.4,64.7,29.89,NE,36,6.0,10.0,65,0.00,SCT,SCT,0.00,232.4,WeatherDisplay:10.37,2013-01-26 23:20:00,
2013-01-26 13:30:00,77.3,63.7,29.89,NE,56,3.0,10.0,63,0.00,SCT,SCT,0.00,145.9,WeatherDisplay:10.37,2013-01-26 23:30:00,
2013-01-26 13:40:00,75.7,63.1,29.88,ENE,59,6.0,15.0,65,0.00,SCT,SCT,0.00,376.0,WeatherDisplay:10.37,2013-01-26 23:40:00,
2013-01-26 13:50:00,76.7,64.9,29.88,NE,35,2.0,9.0,67,0.00,SCT,SCT,0.00,154.9,WeatherDisplay:10.37,2013-01-26 23:50:00,
2013-01-26 14:00:00,76.1,63.9,29.88,NE,44,2.0,12.0,66,0.00,SCT,SCT,0.00,178.0,WeatherDisplay:10.37,2013-01-27 00:00:00,
2013-01-26 14:10:00,76.5,64.7,29.88,NNE,12,6.0,10.0,67,0.00,SCT,SCT,0.00,243.3,WeatherDisplay:10.37,2013-01-27 00:10:00,
2013-01-26 14:20:00,77.0,60.6,29.87,West,261,8.0,12.0,57,0.00,SCT,SCT,0.00,226.5,WeatherDisplay:10.37,2013-01-27 00:20:00,
2013-01-26 14:30:00,76.6,61.2,29.87,SSW,209,6.0,14.0,59,0.00,SCT,SCT,0.00,212.5,WeatherDisplay:10.37,2013-01-27 00:30:00,
2013-01-26 14:40:00,75.6,63.5,29.87,WSW,239,7.0,14.0,66,0.00,SCT,SCT,0.00,145.9,WeatherDisplay:10.37,2013-01-27 00:40:00,
2013-01-26 14:50:00,75.1,62.1,29.87,WSW,258,5.0,12.0,64,0.00,SCT,SCT,0.00,224.7,WeatherDisplay:10.37,2013-01-27 00:50:00,
2013-01-26 15:00:00,76.7,61.3,29.87,WSW,251,9.0,12.0,59,0.00,SCT,SCT,0.00,353.8,WeatherDisplay:10.37,2013-01-27 01:00:00,
2013-01-26 15:10:00,77.4,61.0,29.87,WSW,237,7.0,12.0,57,0.00,SCT,SCT,0.00,157.2,WeatherDisplay:10.37,2013-01-27 01:10:00,
2013-01-26 15:20:00,76.0,60.6,29.87,WSW,245,5.0,12.0,59,0.00,FEW,SCT,0.00,190.3,WeatherDisplay:10.37,2013-01-27 01:20:00,
2013-01-26 15:30:00,75.7,60.4,29.88,West,260,8.0,12.0,59,0.00,FEW,SCT,0.00,299.9,WeatherDisplay:10.37,2013-01-27 01:30:00,
2013-01-26 15:40:00,76.2,61.8,29.87,WSW,253,5.0,12.0,61,0.00,FEW,SCT,0.00,270.0,WeatherDisplay:10.37,2013-01-27 01:40:00,
2013-01-26 15:50:00,76.7,61.8,29.87,WSW,246,7.0,9.0,60,0.00,FEW,SCT,0.00,274.1,WeatherDisplay:10.37,2013-01-27 01:50:00,
2013-01-26 16:00:00,76.4,61.0,29.87,WSW,258,3.0,10.0,59,0.00,FEW,SCT,0.00,298.5,WeatherDisplay:10.37,2013-01-27 02:00:00,
2013-01-26 16:10:00,76.4,61.9,29.87,West,261,8.0,12.0,61,0.00,SCT,SCT,0.00,260.0,WeatherDisplay:10.37,2013-01-27 02:10:00,
2013-01-26 16:20:00,75.8,61.8,29.87,WSW,250,7.0,12.0,62,0.00,SCT,SCT,0.00,281.8,WeatherDisplay:10.37,2013-01-27 02:20:00,
2013-01-26 16:30:00,75.8,62.3,29.87,West,259,8.0,12.0,63,0.00,SCT,SCT,0.00,115.1,WeatherDisplay:10.37,2013-01-27 02:30:00,
2013-01-26 16:40:00,74.3,61.8,29.87,WSW,248,8.0,12.0,65,0.00,SCT,SCT,0.00,185.7,WeatherDisplay:10.37,2013-01-27 02:40:00,
2013-01-26 16:50:00,74.3,62.6,29.87,WSW,256,7.0,12.0,67,0.00,SCT,SCT,0.00,196.6,WeatherDisplay:10.37,2013-01-27 02:50:00,
2013-01-26 17:00:00,73.3,62.1,29.88,WSW,254,7.0,12.0,68,0.00,SCT,SCT,0.00,92.0,WeatherDisplay:10.37,2013-01-27 03:00:00,
2013-01-26 17:10:00,72.5,61.8,29.88,WSW,250,7.0,10.0,69,0.00,SCT,SCT,0.00,76.1,WeatherDisplay:10.37,2013-01-27 03:10:00,
2013-01-26 17:20:00,71.8,61.0,29.88,WSW,253,6.0,11.0,69,0.00,SCT,SCT,0.00,119.6,WeatherDisplay:10.37,2013-01-27 03:20:00,
2013-01-26 17:30:00,71.5,61.2,29.88,WSW,257,7.0,10.0,70,0.00,SCT,SCT,0.00,87.4,WeatherDisplay:10.37,2013-01-27 03:30:00,
2013-01-26 17:40:00,71.3,61.0,29.89,West,271,5.0,12.0,70,0.00,SCT,SCT,0.00,42.1,WeatherDisplay:10.37,2013-01-27 03:40:00,
2013-01-26 17:50:00,70.8,60.1,29.89,West,269,5.0,8.0,69,0.00,SCT,SCT,0.00,25.4,WeatherDisplay:10.37,2013-01-27 03:50:00,
2013-01-26 18:00:00,70.4,60.1,29.90,West,259,3.0,6.0,70,0.00,SCT,SCT,0.00,14.5,WeatherDisplay:10.37,2013-01-27 04:00:00,
2013-01-26 18:10:00,70.0,60.6,29.90,WSW,246,3.0,6.0,72,0.00,SCT,SCT,0.00,0.0,WeatherDisplay:10.37,2013-01-27 04:10:00,
2013-01-26 18:20:00,69.5,60.9,29.91,WSW,254,2.0,5.0,74,0.00,FEW,SCT,0.00,0.0,WeatherDisplay:10.37,2013-01-27 04:20:00,
2013-01-26 18:30:00,69.1,60.9,29.91,WSW,256,1.0,4.0,75,0.00,FEW,SCT,0.00,0.0,WeatherDisplay:10.37,2013-01-27 04:30:00,
2013-01-26 18:40:00,68.7,60.8,29.91,WSW,249,1.0,4.0,76,0.00,FEW,SCT,0.00,0.0,WeatherDisplay:10.37,2013-01-27 04:40:00,
2013-01-26 18:50:00,68.3,60.8,29.91,WSW,242,0.0,3.0,77,0.00,FEW,SCT,0.00,0.0,WeatherDisplay:10.37,2013-01-27 04:50:00,
2013-01-26 19:00:00,67.8,60.3,29.91,WSW,242,0.0,4.0,77,0.00,FEW,SCT,0.00,0.0,WeatherDisplay:10.37,2013-01-27 05:00:00,
2013-01-26 19:10:00,67.3,60.2,29.92,WSW,242,1.0,3.0,78,0.00,FEW,SCT,0.00,0.0,WeatherDisplay:10.37,2013-01-27 05:10:00,
2013-01-26 19:20:00,66.7,60.0,29.92,WSW,242,0.0,2.0,79,0.00,FEW,SCT,0.00,0.0,WeatherDisplay:10.37,2013-01-27 05:20:00,
2013-01-26 19:30:00,66.1,59.8,29.92,South,181,0.0,4.0,80,0.00,FEW,SCT,0.00,0.0,WeatherDisplay:10.37,2013-01-27 05:30:00,
2013-01-26 19:40:00,65.6,59.6,29.92,South,175,0.0,1.0,81,0.00,FEW,SCT,0.00,0.0,WeatherDisplay:10.37,2013-01-27 05:40:00,
2013-01-26 19:50:00,64.9,59.3,29.93,South,175,0.0,1.0,82,0.00,FEW,SCT,0.00,0.0,WeatherDisplay:10.37,2013-01-27 05:50:00,
2013-01-26 20:00:00,64.3,58.7,29.93,SSE,161,0.0,3.0,82,0.00,FEW,SCT,0.00,0.0,WeatherDisplay:10.37,2013-01-27 06:00:00,
2013-01-26 20:10:00,64.0,58.7,29.93,East,99,1.0,4.0,83,0.00,CLR,SCT,0.00,0.0,WeatherDisplay:10.37,2013-01-27 06:10:00,
2013-01-26 20:20:00,63.8,58.5,29.93,East,99,0.0,2.0,83,0.00,CLR,SCT,0.00,0.0,WeatherDisplay:10.37,2013-01-27 06:20:00,
2013-01-26 20:30:00,63.6,58.3,29.93,East,99,0.0,2.0,83,0.00,CLR,SCT,0.00,0.0,WeatherDisplay:10.37,2013-01-27 06:30:00,
2013-01-26 20:40:00,63.5,58.2,29.93,East,101,1.0,3.0,83,0.00,CLR,SCT,0.00,0.0,WeatherDisplay:10.37,2013-01-27 06:40:00,
2013-01-26 20:50:00,63.3,58.8,29.93,ESE,114,1.0,3.0,85,0.00,CLR,SCT,0.00,0.0,WeatherDisplay:10.37,2013-01-27 06:50:00,
2013-01-26 21:00:00,63.1,58.5,29.93,ESE,107,1.0,2.0,85,0.00,CLR,SCT,0.00,0.0,WeatherDisplay:10.37,2013-01-27 07:00:00,
2013-01-26 21:20:00,62.5,58.3,29.92,ESE,107,1.0,3.0,86,0.00,CLR,SCT,0.00,0.0,WeatherDisplay:10.37,2013-01-27 07:20:00,
2013-01-26 21:30:00,62.1,57.9,29.92,ESE,108,1.0,4.0,86,0.00,CLR,SCT,0.00,0.0,WeatherDisplay:10.37,2013-01-27 07:30:00,
2013-01-26 21:40:00,62.5,58.0,29.92,ESE,115,2.0,6.0,85,0.00,CLR,SCT,0.00,0.0,WeatherDisplay:10.37,2013-01-27 07:40:00,
2013-01-26 21:50:00,63.0,57.8,29.92,ESE,102,2.0,5.0,83,0.00,CLR,SCT,0.00,0.0,WeatherDisplay:10.37,2013-01-27 07:50:00,
2013-01-26 22:00:00,63.3,57.7,29.92,ESE,104,3.0,6.0,82,0.00,CLR,SCT,0.00,0.0,WeatherDisplay:10.37,2013-01-27 08:00:00,
2013-01-26 22:10:00,63.3,57.4,29.92,East,94,1.0,6.0,81,0.00,CLR,SCT,0.00,0.0,WeatherDisplay:10.37,2013-01-27 08:10:00,
2013-01-26 22:20:00,63.0,56.7,29.92,ESE,104,0.0,5.0,80,0.00,CLR,SCT,0.00,0.0,WeatherDisplay:10.37,2013-01-27 08:20:00,
2013-01-26 22:30:00,62.5,55.8,29.92,ESE,122,3.0,6.0,79,0.00,CLR,SCT,0.00,0.0,WeatherDisplay:10.37,2013-01-27 08:30:00,
2013-01-26 22:40:00,62.3,56.0,29.92,SE,140,1.0,3.0,80,0.00,CLR,SCT,0.00,0.0,WeatherDisplay:10.37,2013-01-27 08:40:00,
2013-01-26 22:50:00,62.0,55.4,29.92,SE,140,1.0,4.0,79,0.00,CLR,SCT,0.00,0.0,WeatherDisplay:10.37,2013-01-27 08:50:00,
2013-01-26 23:00:00,61.8,55.2,29.92,SE,132,0.0,6.0,79,0.00,CLR,SCT,0.00,0.0,WeatherDisplay:10.37,2013-01-27 09:00:00,
2013-01-26 23:10:00,61.4,55.5,29.92,SE,132,1.0,3.0,81,0.00,CLR,SCT,0.00,0.0,WeatherDisplay:10.37,2013-01-27 09:10:00,
2013-01-26 23:20:00,61.0,55.8,29.92,SE,132,0.0,2.0,83,0.00,CLR,SCT,0.00,0.0,WeatherDisplay:10.37,2013-01-27 09:20:00,
2013-01-26 23:30:00,60.5,55.3,29.92,SE,132,2.0,3.0,83,0.00,CLR,SCT,0.00,0.0,WeatherDisplay:10.37,2013-01-27 09:30:00,
2013-01-26 23:40:00,60.2,55.0,29.92,East,101,1.0,4.0,83,0.00,CLR,SCT,0.00,0.0,WeatherDisplay:10.37,2013-01-27 09:40:00,
2013-01-26 23:50:00,60.0,54.8,29.92,East,94,1.0,5.0,83,0.00,CLR,SCT,0.00,0.0,WeatherDisplay:10.37,2013-01-27 09:50:00,